Starlink 3702

operational
NORAD ID: 52100 Int'l Des: 2022-029 Owner: SPXS Country: US Constellation: starlink
LEOCIRCULAR

About Starlink 3702

Description loading...

Live Position

Loading 3D Globe...

Upcoming Passes

Altitude History

Altitude vs Time

uPlot chart will show altitude changes over time

Two-Line Element Set

1 52100U 22029N 25259.11965652 .00000415 00000-0 44168-4 0 9998
2 52100 53.2183 152.7952 0001601 96.4664 263.6510 15.08840726194307
Epoch: Sep 16, 2025 • Age: 15 hours

Current Status

Altitude 540.0 km
Velocity 7.60 km/s
Sub-Earth Point 25.20°N, 46.1°E
Launch Date Mar 19, 2022
Age 3.4 years
Type internet

Technical Details

Classification Payload
Mass 297.00 kg
Dry Mass 275.00 kg
Total Mass 297.00 kg
Length 0.20 m
Diameter 2.80 m
Span 9.00 m
Shape Box + pan
Manufacturer SPXS
Bus Type Starlink
Phase Status In Orbit
Owner/State SPXS/US

Large Constellations

Loading constellations...